RH
78 82 91 93 94 92 91 92 92 82 81 82 80 80 81 86 96 96 93 88 78 73 78 77 88 86 90 92 94 94 95 92 98 97 88 89 95 96 96 96 92 96 97
79 80 83 90 93 94 91 90 90 85 82 85 83 82 83 86 96 96 93 90 80 72 67 72 86 78 94 96 96 93 94 94 95 96 95 96 98 97 97 96 91 83 97
80 84 86 88 93 91 89 93 90 86 84 85 88 86 86 88 90 97 94 92 75 71 65 72 87 91 94 96 94 96 96 84 91 97 98 98 99 98 98 97 98 97 89
88 85 85 84 85 86 85 92 92 88 83 86 89 86 87 86 90 96 95 92 75 71 65 90 88 87 89 94 93 95 94 97 96 97 98 95 94 97 97 98 99 98 95
86 93 78 79 80 83 89 88 88 90 82 82 84 87 90 87 82 97 96 81 70 84 81 80 87 80 79 84 92 95 95 97 98 97 97 98 98 98 98 98 98 98 97
93 89 79 80 80 85 85 89 90 89 92 88 86 83 83 78 88 96 92 74 69 80 78 89 86 76 81 83 83 80 88 94 96 97 97 96 98 97 98 98 98 98 99
95 88 75 75 82 82 82 88 92 94 92 91 89 88 87 85 88 98 92 70 72 79 78 81 72 71 83 90 86 87 87 83 82 94 95 96 97 96 95 97 97 98 99
97 96 91 83 85 80 82 83 81 88 94 90 89 90 90 94 94 97 92 78 83 78 69 67 72 88 86 89 96 96 94 94 94 88 94 94 94 91 92 93 97 98 93
93 96 98 95 92 91 90 86 85 95 94 95 92 91 92 96 98 98 92 88 90 74 70 78 72 79 86 88 90 96 96 95 89 88 88 90 90 85 84 96 98 98 99
96 96 96 97 95 91 92 93 95 95 93 96 95 96 98 96 100 98 94 81 88 88 88 87 77 76 88 90 89 93 97 96 95 93 94 92 87 89 83 92 98 98 98
96 97 97 96 96 95 94 93 94 94 94 95 95 96 96 97 99 100 96 87 96 96 90 79 71 87 88 93 88 90 92 96 87 96 97 98 97 98 98 96 95 96 97
93 97 97 97 97 95 93 94 93 93 95 96 96 98 98 97 100 100 96 97 94 94 93 94 69 89 86 92 94 91 91 89 85 98 98 99 99 99 99 96 97 97 96
97 96 94 93 97 96 97 95 97 96 97 97 98 98 98 99 99 100 100 94 95 96 95 88 85 86 83 87 83 93 89 96 98 97 99 99 98 98 95 94 94 98 99
98 96 96 97 97 96 99 98 98 98 99 99 100 99 99 99 100 99 100 99 98 96 83 82 85 78 70 74 77 74 78 92 86 94 98 98 99 98 98 97 97 94 97
95 96 97 98 98 97 98 95 95 99 100 97 99 99 99 98 100 100 100 99 97 98 96 93 89 92 89 69 70 79 71 92 90 96 97 99 99 98 98 98 98 97 97
90 93 99 100 99 99 98 97 100 99 100 100 100 99 97 100 100 100 100 100 100 99 96 96 95 92 85 78 66 69 71 81 85 84 91 98 98 98 98 98 98 98 96
97 96 92 99 99 99 99 99 99 100 99 100 100 100 100 100 100 100 100 100 100 95 96 97 96 94 92 86 78 70 74 83 79 81 86 92 94 94 98 99 99 99 97
90 96 88 93 91 96 99 99 99 98 99 99 100 100 100 100 100 100 100 100 98 97 97 97 97 95 93 89 87 79 69 74 74 82 85 87 89 89 97 98 99 98 99
86 87 87 95 91 96 93 92 95 95 99 98 98 99 100 100 100 100 100 97 96 97 99 98 97 96 91 66 72 79 70 66 72 72 80 82 86 86 89 94 94 97 97
85 90 89 89 90 93 96 97 97 98 97 96 97 98 99 99 98 99 98 97 95 97 99 98 97 95 85 74 70 76 82 69 68 71 74 76 80 80 84 87 89 95 95
88 86 88 88 87 90 96 98 98 99 98 98 99 98 100 99 99 99 100 99 99 98 97 98 99 98 95 84 84 89 86 68 61 72 72 73 76 78 80 80 82 86 91
93 92 92 92 88 89 91 95 98 98 98 99 99 97 99 96 97 98 99 98 98 99 99 99 99 98 97 96 92 88 92 77 62 65 76 69 70 74 77 77 79 81 88
86 91 89 91 91 93 91 93 96 97 98 98 98 98 98 98 98 98 98 98 98 98 98 97 98 99 99 98 98 97 87 78 64 58 69 70 66 66 74 74 74 78 83
83 86 89 93 92 93 95 96 96 97 97 98 98 98 98 98 98 98 98 98 98 98 98 98 98 98 98 98 98 92 87 88 79 64 66 68 63 71 68 72 69 74 73
86 87 93 96 96 96 94 95 96 96 97 97 98 98 98 98 98 98 98 98 98 98 98 98 98 98 98 98 96 96 100 100 82 92 75 74 69 68 64 62 68 66 72
84 88 92 95 96 96 94 95 93 93 96 96 97 98 98 98 98 97 97 96 97 97 97 98 98 98 97 98 98 99 100 100 99 100 92 79 80 82 69 63 65 62 67
Wind_Speed
11 10 8 8 8 7 6 6 6 5 6 6 5 4 3 5 6 5 6 6 6 6 3 4 4 3 4 4 3 3 2 3 4 2 2 3 4 5 4 3 5 5 5
12 11 12 10 8 7 8 7 6 6 5 6 6 5 4 4 6 6 6 6 7 6 5 5 4 3 5 5 3 3 2 2 5 5 0 3 4 3 4 4 4 4 5
5 6 9 10 9 11 10 7 7 7 7 6 6 6 6 5 6 7 6 6 7 6 6 6 5 6 4 4 3 4 4 4 4 4 1 1 3 2 4 4 4 4 4
5 6 9 11 12 12 11 8 7 7 7 7 7 7 7 6 5 6 7 6 6 6 5 6 6 6 6 5 4 4 4 5 4 4 3 2 1 3 3 2 4 4 5
7 5 10 12 11 9 9 10 9 8 8 7 7 6 6 6 5 8 8 7 7 7 5 5 6 9 11 7 4 3 6 4 4 3 2 2 1 1 3 0 2 2 5
8 9 10 10 11 11 10 9 9 8 7 7 7 7 7 5 9 14 12 9 8 9 8 5 6 12 10 11 11 9 6 4 4 3 1 2 2 2 3 2 1 2 3
9 10 11 12 11 11 10 9 9 9 8 9 7 7 7 7 10 14 15 10 10 8 9 8 7 6 8 6 11 12 11 11 6 4 4 2 2 3 3 3 2 3 2
7 7 10 10 11 10 10 11 10 8 9 9 9 8 7 6 7 15 15 11 8 8 10 9 9 7 7 8 7 6 6 5 5 3 3 2 1 4 4 4 4 3 2
7 5 11 8 7 7 8 10 8 6 7 9 8 10 9 7 9 14 12 9 9 9 8 6 10 9 11 13 8 7 5 3 5 6 4 4 7 10 8 6 2 3 3
8 10 9 7 4 6 8 7 5 4 8 7 8 7 8 6 9 16 12 8 8 7 7 6 12 11 13 14 9 8 6 4 4 3 4 5 5 6 8 3 5 3 3
10 11 9 7 5 6 7 3 4 6 5 6 6 5 5 6 7 16 13 9 9 7 8 8 7 13 15 15 13 8 7 7 5 4 3 3 4 3 2 3 4 5 3
10 10 8 6 3 3 5 3 5 4 4 4 3 3 4 5 9 14 16 11 13 10 9 7 8 15 15 13 11 13 14 9 5 4 3 3 3 2 3 4 4 4 1
9 9 9 7 6 6 5 3 2 2 0 2 3 3 3 3 5 12 12 15 15 9 7 9 12 15 13 8 12 15 17 6 4 4 3 2 2 2 0 4 6 7 7
7 7 8 7 6 4 3 4 4 4 4 3 2 3 2 3 2 4 6 6 7 5 9 9 10 11 11 9 6 7 6 8 7 6 4 2 3 1 2 1 3 3 5
7 6 6 5 5 1 4 4 4 4 3 2 3 3 2 2 2 4 7 8 9 7 10 6 5 4 4 5 4 4 4 4 6 5 6 4 3 2 1 1 2 2 3
4 5 5 5 5 5 2 2 13 10 6 10 7 5 0 2 4 4 3 5 12 16 6 6 7 5 6 5 5 5 5 6 6 7 7 6 5 4 3 2 2 3 3
4 5 4 4 3 4 5 3 2 4 9 7 8 6 5 7 9 9 9 10 12 11 5 6 7 7 5 5 5 4 5 4 9 8 8 7 6 6 6 4 3 2 2
5 7 4 4 4 4 3 4 3 2 2 2 5 6 7 7 9 7 10 15 7 3 5 6 6 6 6 6 5 6 5 6 9 8 7 7 7 8 7 6 6 5 4
4 4 4 3 4 4 4 4 4 4 4 4 4 5 7 6 8 9 1 5 7 6 5 6 6 6 7 7 6 5 5 8 9 9 8 8 8 7 7 7 6 8 7
4 9 5 3 4 5 5 4 4 5 6 5 5 5 5 2 3 4 4 3 3 3 3 4 6 6 8 6 6 5 4 4 8 9 10 9 8 8 8 8 8 8 7
3 4 7 4 4 5 4 5 4 5 5 5 4 7 11 2 3 3 4 4 3 1 3 3 4 4 4 5 4 3 2 4 7 8 10 10 10 9 8 7 8 8 7
4 4 4 4 4 5 4 4 4 4 4 4 3 5 11 6 5 5 5 5 5 4 5 2 4 5 5 6 5 6 5 5 5 8 9 10 11 10 9 9 7 7 8
4 4 4 4 4 5 6 5 5 5 5 5 4 4 5 5 5 5 5 5 5 6 6 5 4 3 3 5 6 6 7 6 5 6 9 10 10 9 10 9 9 8 8
4 4 3 4 4 5 5 4 4 7 5 5 5 5 5 5 5 6 5 5 5 6 5 5 6 7 6 5 3 2 2 2 3 4 7 7 9 8 9 9 10 11 10
4 4 4 4 4 5 6 5 5 6 6 5 4 5 4 5 5 5 5 5 5 5 7 6 5 7 8 7 6 6 7 2 4 3 5 6 4 3 6 8 8 8 9
3 4 4 4 5 5 5 5 5 5 6 5 5 5 5 5 5 5 5 6 5 6 7 6 8 10 9 6 7 8 7 9 4 5 5 5 7 7 4 4 8 9 11
Wind_Direction
191 189 187 202 203 192 207 228 239 222 231 203 202 173 139 132 156 153 154 149 142 134 119 109 77 92 69 60 41 46 60 100 116 23 81 79 84 101 63 63 40 11 355
200 195 193 193 197 193 211 214 227 237 226 205 204 198 183 163 164 167 168 168 151 150 147 120 120 86 62 71 47 28 29 162 123 132 56 65 77 84 87 57 19 19 355
264 230 199 200 193 203 212 212 200 222 231 228 210 210 211 209 180 179 177 169 160 156 152 144 135 105 79 72 46 56 51 71 84 109 123 87 83 84 69 43 15 6 12
346 242 233 214 203 207 208 205 201 203 221 223 221 219 220 218 201 161 159 150 146 140 137 131 136 122 123 104 82 74 85 86 88 94 64 64 91 95 76 79 43 8 23
293 299 237 234 219 205 205 204 206 196 215 224 214 227 227 215 204 162 155 153 139 127 114 119 117 129 126 124 114 102 99 95 96 95 91 71 82 134 109 99 91 28 33
252 289 266 219 219 205 210 208 202 204 206 217 223 213 225 230 206 166 156 155 150 143 138 122 115 115 111 113 111 104 121 133 121 125 154 105 107 111 116 133 110 19 30
287 319 260 218 211 206 202 202 205 201 197 213 220 212 223 229 213 170 158 154 153 151 146 141 136 133 114 107 91 79 73 74 100 146 132 151 150 142 125 100 30 64 75
331 344 292 207 207 205 205 210 212 201 199 212 219 217 219 234 219 171 158 144 142 154 158 157 144 148 142 126 109 91 75 77 96 90 105 176 203 117 105 123 124 117 58
339 346 304 234 202 199 204 220 211 198 203 208 210 214 215 227 179 155 141 143 154 163 156 160 152 160 167 135 123 118 106 84 79 86 55 86 123 109 115 112 94 109 53
317 300 294 309 293 210 213 212 204 192 211 210 218 209 208 217 157 165 151 154 158 149 156 169 170 170 174 150 142 142 145 181 148 83 37 76 99 132 134 151 141 132 126
307 303 292 291 322 225 236 212 210 220 227 221 211 207 195 194 168 177 164 158 162 159 166 179 186 170 171 173 154 163 171 155 170 113 85 55 44 46 74 131 176 149 139
319 301 304 303 275 179 215 248 249 230 238 253 246 223 206 180 159 188 179 160 161 160 174 175 185 167 165 159 163 172 151 152 145 119 114 93 87 29 11 58 71 89 70
328 326 340 332 10 30 64 52 75 43 331 283 238 219 233 181 162 180 180 161 162 161 175 173 165 163 163 142 141 145 148 154 146 137 149 152 155 164 149 68 74 69 62
331 346 347 351 343 13 360 73 81 67 77 80 64 32 354 299 116 143 179 159 159 147 140 143 157 162 171 151 133 148 158 164 157 158 152 146 112 51 53 60 86 80 95
337 350 355 341 342 83 62 356 68 58 31 35 54 31 15 343 76 280 198 183 174 156 117 113 154 158 168 173 140 153 155 153 150 150 146 151 138 131 108 50 78 94 69
353 357 342 351 353 8 52 91 51 67 52 78 69 52 16 152 293 327 115 180 147 147 124 153 174 181 172 177 168 174 174 168 168 160 154 161 160 155 148 87 75 112 124
350 342 334 350 4 13 11 347 146 59 54 67 71 66 28 298 301 276 170 127 144 140 144 168 166 166 173 181 181 163 171 185 160 168 166 163 161 162 153 145 138 132 117
350 356 353 22 4 3 0 360 33 73 118 56 45 53 24 349 312 297 152 112 146 90 124 150 163 167 181 190 189 190 172 156 170 169 167 172 168 169 162 172 170 162 164
345 346 335 42 41 15 9 20 24 63 71 61 28 12 29 354 38 81 314 122 154 154 153 161 168 178 196 202 200 199 182 168 181 174 174 175 171 168 176 173 178 168 156
350 357 8 55 54 46 33 22 25 55 65 57 40 1 320 293 19 62 71 72 104 117 142 161 177 189 194 196 200 192 206 184 177 180 174 176 173 177 180 179 174 179 181
8 350 6 48 51 64 48 41 34 45 53 53 34 10 346 34 52 36 33 35 40 200 195 181 180 179 191 188 171 189 293 226 181 179 181 175 175 180 185 188 177 176 180
6 21 6 34 57 58 59 54 55 55 50 54 29 12 12 43 35 32 34 31 12 3 342 278 189 192 195 189 188 176 231 244 225 180 181 180 181 185 181 179 178 180 177
26 36 38 28 52 73 65 48 55 58 49 43 41 36 33 39 32 26 18 19 18 21 2 2 16 360 189 188 183 167 207 240 213 192 182 177 185 184 181 183 182 180 186
43 48 60 64 44 68 65 59 66 62 58 45 41 42 41 43 36 33 19 15 24 25 17 15 14 22 5 30 46 67 174 176 266 211 172 182 187 182 175 182 183 183 193
31 49 50 59 55 64 69 55 61 62 57 43 45 44 38 45 42 38 31 21 28 33 28 17 15 14 25 18 10 10 0 332 198 289 114 103 86 215 184 181 181 176 183
62 55 52 47 52 59 71 65 64 61 63 45 42 46 42 38 44 41 34 32 30 36 32 25 21 23 11 12 359 333 333 318 136 121 81 72 94 58 358 236 183 175 180